This is the latest recevied weather packets stored in our database for station/object CE2KVL-1. If no packets are shown the sender has not sent any weather packets the latest 10 day(s).
| Time | Temp. | Humidity | Pressure | Rain* | Wind** | Luminosity | Snow |
|---|---|---|---|---|---|---|---|
| 1777960682 | 16.11° C | 50% | 1019.4 hPa | - | - | - | - |
| 1777960383 | 15.56° C | 52% | 1019.8 hPa | - | - | - | - |
| 1777960083 | 15.56° C | 52% | 1020 hPa | - | - | - | - |
| 1777959782 | 15.56° C | 52% | 1019.7 hPa | - | - | - | - |
| 1777959482 | 15.56° C | 52% | 1020.3 hPa | - | - | - | - |
| 1777959183 | 15.56° C | 51% | 1019.9 hPa | - | - | - | - |
| 1777958882 | 15.56° C | 51% | 1020.4 hPa | - | - | - | - |
| 1777958583 | 16.11° C | 51% | 1020.2 hPa | - | - | - | - |
| 1777958283 | 16.11° C | 50% | 1020.1 hPa | - | - | - | - |
| 1777957982 | 16.11° C | 50% | 1020.4 hPa | - | - | - | - |
| 1777957683 | 16.11° C | 50% | 1020 hPa | - | - | - | - |
| 1777957383 | 16.11° C | 49% | 1020.4 hPa | - | - | - | - |
| 1777957083 | 16.11° C | 48% | 1020.3 hPa | - | - | - | - |
| 1777956782 | 16.67° C | 46% | 1020.3 hPa | - | - | - | - |
| 1777956482 | 16.67° C | 45% | 1020 hPa | - | - | - | - |
| 1777956182 | 16.67° C | 43% | 1019.7 hPa | - | - | - | - |
| 1777955883 | 16.67° C | 44% | 1019.9 hPa | - | - | - | - |
| 1777955583 | 16.67° C | 43% | 1019.7 hPa | - | - | - | - |
| 1777955283 | 17.22° C | 43% | 1019.4 hPa | - | - | - | - |
| 1777954983 | 16.67° C | 42% | 1019.6 hPa | - | - | - | - |
| 1777954682 | 17.22° C | 42% | 1019 hPa | - | - | - | - |
| 1777954383 | 16.67° C | 43% | 1019.3 hPa | - | - | - | - |
| 1777954083 | 16.67° C | 44% | 1019.4 hPa | - | - | - | - |
| 1777953783 | 16.67° C | 45% | 1019.1 hPa | - | - | - | - |
| 1777953482 | 16.67° C | 45% | 1019.2 hPa | - | - | - | - |
* Rain since midnight (hover to see other rain measurements)
** Current wind speed in m/s (hover to see current wind gust speed)